Terug naar catalogus

TAURUS 3

ActiefCommunicatieVLEO
NORAD 66296·PAYLOAD·🇹🇷 Turkey
Deze satellietnaam is nog niet bevestigd door officiële bronnen.

Gelanceerd Nov 2, 2025 vanaf Cape Canaveral Space Force Station

Loading…

Volgende Passages (komende 24 uur)

TLE

VersSource: Space-Track

Epoch: Sep 14, 2026, 06:35 UTC

1 66296U 25248D   26257.27468566  .00005184  00000-0  23065-3 0  9993
2 66296  45.4038   1.4366 0004615 227.5069 132.5429 15.22672253 48106

Volg TAURUS 3 in realtime met AllMySat

Download on the App Store